FW1404 Weather Reports


Display with metric or nautical units.
time (UTC)temp
F
wind
direction
speed
MPH
gust
MPH
rain 1hr
in
rain 24hr
in
rain mn
in
humidity
%
barometer
mb
20260831193941 65 221 5.0 9.0 0.00 0.00 0.00 73 1012.3
20260831193921 66 232 7.0 13.0 0.00 0.00 0.00 73 1012.4
20260831192851 65 235 5.0 10.0 0.00 0.00 0.00 75 1012.2
20260831192352 65 231 7.0 10.0 0.00 0.00 0.00 75 1012.3
20260831191850 64 255 5.0 6.0 0.00 0.00 0.00 75 1012.3
20260831191352 64 220 4.0 5.0 0.00 0.00 0.00 75 1012.2
20260831190850 64 218 5.0 6.0 0.00 0.00 0.00 75 1012.2
20260831190352 64 204 4.0 6.0 0.00 0.00 0.00 75 1012.1
20260831185850 64 206 4.0 5.0 0.00 0.00 0.00 75 1012.0
20260831185640 65 206 4.0 5.0 0.00 0.00 0.00 75 1012.1
20260831184850 65 204 4.0 5.0 0.00 0.00 0.00 75 1012.0
20260831184350 65 220 3.0 5.0 0.00 0.00 0.00 75 1012.0
20260831183850 65 220 2.0 3.0 0.00 0.00 0.00 74 1012.0
20260831183352 65 220 2.0 3.0 0.00 0.00 0.00 73 1011.9
20260831182851 66 220 2.0 4.0 0.00 0.00 0.00 73 1011.9
20260831182352 66 220 2.0 5.0 0.00 0.00 0.00 73 1011.9
20260831181852 66 220 3.0 5.0 0.00 0.00 0.00 73 1011.9
20260831181353 67 220 4.0 5.0 0.00 0.00 0.00 73 1011.9
20260831180849 67 220 3.0 5.0 0.00 0.00 0.00 72 1011.7
20260831180350 67 220 3.0 5.0 0.00 0.00 0.00 72 1011.8
20260831175849 68 220 4.0 5.0 0.00 0.00 0.00 71 1011.7
20260831175351 68 220 4.0 5.0 0.00 0.00 0.00 71 1011.8
20260831175134 69 224 3.0 5.0 0.00 0.00 0.00 71 1011.7
20260831174351 69 224 3.0 5.0 0.00 0.00 0.00 70 1011.7
20260831173850 70 225 3.0 5.0 0.00 0.00 0.00 69 1011.7
20260831173351 70 225 4.0 6.0 0.00 0.00 0.00 69 1011.6
20260831172848 70 241 4.0 7.0 0.00 0.00 0.00 69 1011.6
20260831172349 70 232 5.0 7.0 0.00 0.00 0.00 69 1011.6
20260831172135 71 208 4.0 6.0 0.00 0.00 0.00 68 1011.6
20260831171349 71 255 3.0 7.0 0.00 0.00 0.00 68 1011.6
20260831170847 71 258 4.0 7.0 0.00 0.00 0.00 68 1011.6
20260831170350 71 217 4.0 7.0 0.00 0.00 0.00 68 1011.5
20260831165850 72 215 4.0 7.0 0.00 0.00 0.00 67 1011.5
20260831165635 72 232 4.0 6.0 0.00 0.00 0.00 66 1011.6
20260831164849 72 224 3.0 7.0 0.00 0.00 0.00 66 1011.6
20260831164628 72 234 5.0 12.0 0.00 0.00 0.00 65 1011.5
20260831163847 72 231 6.0 12.0 0.00 0.00 0.00 65 1011.6
20260831163347 73 186 7.0 11.0 0.00 0.00 0.00 65 1011.5
20260831162848 73 253 7.0 11.0 0.00 0.00 0.00 66 1011.5
20260831162346 73 227 4.0 11.0 0.00 0.00 0.00 66 1011.5
20260831161849 73 246 8.0 10.0 0.00 0.00 0.00 66 1011.5
20260831161348 73 242 5.0 9.0 0.00 0.00 0.00 66 1011.5
20260831160846 73 231 6.0 10.0 0.00 0.00 0.00 65 1011.5
20260831160348 73 246 6.0 10.0 0.00 0.00 0.00 65 1011.4
20260831160130 73 237 5.0 14.0 0.00 0.00 0.00 65 1011.5
20260831155346 73 238 7.0 18.0 0.00 0.00 0.00 64 1011.5
20260831154846 73 294 9.0 18.0 0.00 0.00 0.00 64 1011.5
20260831154346 74 201 9.0 15.0 0.00 0.00 0.00 64 1011.6
20260831153845 74 231 10.0 16.0 0.00 0.00 0.00 64 1011.6
20260831153344 74 277 10.0 16.0 0.00 0.00 0.00 65 1011.7
20260831152845 74 231 10.0 15.0 0.00 0.00 0.00 66 1011.7
20260831152624 74 237 9.0 15.0 0.00 0.00 0.00 67 1011.7
20260831151846 74 225 7.0 15.0 0.00 0.00 0.00 63 1011.6
20260831151346 74 208 8.0 14.0 0.00 0.00 0.00 63 1011.8
20260831151127 73 225 9.0 15.0 0.00 0.00 0.00 63 1011.8
20260831150345 73 273 11.0 15.0 0.00 0.00 0.00 63 1011.8
20260831150122 74 225 9.0 14.0 0.00 0.00 0.00 64 1011.8
20260831145344 74 235 7.0 13.0 0.00 0.00 0.00 64 1011.9
20260831144845 74 229 9.0 13.0 0.00 0.00 0.00 65 1011.8
20260831144635 73 201 6.0 14.0 0.00 0.00 0.00 65 1011.8
20260831143845 73 239 8.0 14.0 0.00 0.00 0.00 65 1011.8
20260831143344 73 241 6.0 11.0 0.00 0.00 0.00 65 1011.8
20260831142844 74 268 5.0 11.0 0.00 0.00 0.00 65 1011.8
20260831142626 74 251 7.0 11.0 0.00 0.00 0.00 65 1011.7
20260831141845 74 251 6.0 10.0 0.00 0.00 0.00 64 1011.8
20260831141344 74 229 8.0 16.0 0.00 0.00 0.00 64 1011.9
20260831140844 74 215 9.0 16.0 0.00 0.00 0.00 64 1011.8
20260831140626 74 227 8.0 14.0 0.00 0.00 0.00 66 1011.9
20260831140125 74 220 10.0 14.0 0.00 0.00 0.00 66 1011.8
20260831135342 74 200 7.0 15.0 0.00 0.00 0.00 66 1011.8
20260831134844 74 234 9.0 15.0 0.00 0.00 0.00 67 1011.9
20260831134345 74 249 8.0 12.0 0.00 0.00 0.00 68 1011.9
20260831133844 73 232 6.0 11.0 0.00 0.00 0.00 68 1012.0
20260831133344 73 235 6.0 13.0 0.00 0.00 0.00 67 1011.9
20260831132833 74 235 6.0 13.0 0.00 0.00 0.00 66 1011.9
20260831132334 74 242 9.0 15.0 0.00 0.00 0.00 66 1012.0
20260831131832 74 263 6.0 15.0 0.00 0.00 0.00 66 1012.0
20260831131315 75 268 11.0 15.0 0.00 0.00 0.00 67 1011.9
20260831131051 74 238 6.0 14.0 0.00 0.00 0.00 67 1011.9
20260831130308 74 273 11.0 14.0 0.00 0.00 0.00 69 1011.9
20260831130053 73 273 4.0 14.0 0.00 0.00 0.00 71 1011.9
20260831125306 72 275 8.0 17.0 0.00 0.00 0.00 72 1012.0
20260831124804 71 225 8.0 17.0 0.00 0.00 0.00 71 1012.0
20260831124343 71 246 9.0 16.0 0.00 0.00 0.00 70 1011.9
20260831124329 71 225 7.0 16.0 0.00 0.00 0.00 70 1012.0
20260831123249 72 246 11.0 15.0 0.00 0.00 0.00 70 1011.9
20260831122741 71 234 9.0 15.0 0.00 0.00 0.00 72 1012.0
20260831122246 71 238 9.0 16.0 0.00 0.00 0.00 70 1011.9
20260831121756 72 208 11.0 16.0 0.00 0.00 0.00 70 1011.9
20260831121245 72 234 5.0 10.0 0.00 0.00 0.00 70 1011.8
20260831121043 72 218 7.0 10.0 0.00 0.00 0.00 70 1011.8
20260831120244 72 204 5.0 13.0 0.00 0.00 0.00 69 1011.8
20260831115742 72 244 9.0 13.0 0.00 0.00 0.00 69 1011.8
20260831115246 72 186 7.0 13.0 0.00 0.00 0.00 69 1011.7
20260831114742 72 211 7.0 13.0 0.00 0.00 0.00 70 1011.8
20260831114245 72 213 10.0 12.0 0.00 0.00 0.00 69 1011.9
20260831113743 72 190 5.0 11.0 0.00 0.00 0.00 71 1012.0
20260831113245 71 258 6.0 13.0 0.00 0.00 0.00 69 1011.9
20260831112741 71 227 9.0 13.0 0.00 0.00 0.00 69 1012.0
20260831112247 72 224 8.0 15.0 0.00 0.00 0.00 69 1011.9
20260831111743 71 203 11.0 15.0 0.00 0.00 0.00 69 1011.9
20260831111246 71 207 9.0 14.0 0.00 0.00 0.00 69 1012.0
20260831110749 71 277 6.0 10.0 0.00 0.00 0.00 69 1011.9
20260831110246 70 242 7.0 10.0 0.00 0.00 0.00 71 1012.0
20260831105742 70 220 5.0 10.0 0.00 0.00 0.00 75 1011.9
20260831105246 69 231 3.0 6.0 0.00 0.00 0.00 76 1012.1
20260831104744 68 187 4.0 7.0 0.00 0.00 0.00 75 1012.2
20260831104245 67 231 5.0 7.0 0.00 0.00 0.00 75 1012.2
20260831103743 67 217 4.0 11.0 0.00 0.00 0.00 75 1012.3
20260831103243 67 211 7.0 11.0 0.00 0.00 0.00 75 1012.3
20260831102742 67 211 5.0 9.0 0.00 0.00 0.00 76 1012.5
20260831102245 67 211 5.0 9.0 0.00 0.00 0.00 75 1012.4
20260831102024 67 224 3.0 9.0 0.00 0.00 0.00 75 1012.4
20260831101244 67 231 6.0 9.0 0.00 0.00 0.00 75 1012.4
20260831101041 67 244 4.0 7.0 0.00 0.00 0.00 75 1012.3
20260831100244 67 251 4.0 7.0 0.00 0.00 0.00 74 1012.4
20260831095741 67 229 4.0 6.0 0.00 0.00 0.00 74 1012.3
20260831095246 67 246 4.0 6.0 0.00 0.00 0.00 74 1012.3
20260831094740 67 222 4.0 11.0 0.00 0.00 0.00 73 1012.4
20260831094242 67 241 6.0 11.0 0.00 0.00 0.00 74 1012.4
20260831093741 66 249 6.0 10.0 0.00 0.00 0.00 74 1012.4
20260831093242 66 256 4.0 7.0 0.00 0.00 0.00 75 1012.4
20260831092739 66 244 5.0 11.0 0.00 0.00 0.00 74 1012.4
20260831092243 66 286 4.0 11.0 0.00 0.00 0.00 74 1012.2
20260831091754 66 284 5.0 10.0 0.00 0.00 0.00 74 1012.2
20260831091241 66 252 7.0 9.0 0.00 0.00 0.00 74 1012.5
20260831090741 66 262 6.0 11.0 0.00 0.00 0.00 73 1012.4
20260831090535 66 234 5.0 11.0 0.00 0.00 0.00 73 1012.5
20260831085741 66 211 8.0 10.0 0.00 0.00 0.00 73 1012.4
20260831085237 0 251 6.0 6.0 0.00 0.00 0.00 1012.4
20260831085130 67 220 9.0 12.0 0.00 0.00 0.00 72 1012.2
20260831084407 67 220 9.0 12.0 0.00 0.00 0.00 72 1012.2
20260831083904 67 245 10.0 14.0 0.00 0.00 0.00 73 1012.2
20260831083406 67 266 8.0 14.0 0.00 0.00 0.00 73 1012.2
20260831082902 67 297 9.0 13.0 0.00 0.00 0.00 74 1012.0
20260831082403 66 260 7.0 13.0 0.00 0.00 0.00 74 1012.1
20260831081903 66 239 5.0 13.0 0.00 0.00 0.00 74 1012.2
20260831081405 66 231 10.0 15.0 0.00 0.00 0.00 73 1012.1
20260831080905 66 227 11.0 16.0 0.00 0.00 0.00 74 1012.0
20260831080408 65 224 8.0 16.0 0.00 0.00 0.00 76 1011.8
20260831075903 65 245 9.0 13.0 0.00 0.00 0.00 76 1011.7
20260831075405 65 234 10.0 14.0 0.00 0.00 0.00 76 1011.6
20260831074904 64 204 8.0 14.0 0.00 0.00 0.00 76 1011.4
20260831074405 64 210 11.0 13.0 0.00 0.00 0.00 79 1011.4
20260831074147 63 231 7.0 10.0 0.00 0.00 0.00 79 1011.4
20260831073409 62 201 5.0 6.0 0.00 0.00 0.00 79 1011.2
20260831072904 62 177 2.0 4.0 0.00 0.00 0.00 79 1011.0
20260831072405 62 163 1.0 3.0 0.00 0.00 0.00 79 1011.2
20260831071904 62 163 0.0 4.0 0.00 0.00 0.00 79 1011.3
20260831071404 62 163 1.0 4.0 0.00 0.00 0.00 78 1011.3
20260831070903 62 162 2.0 5.0 0.00 0.00 0.00 78 1011.4
20260831070406 62 165 2.0 5.0 0.00 0.00 0.00 78 1011.5
20260831065904 62 186 1.0 4.0 0.00 0.00 0.00 78 1011.5
20260831065403 62 162 1.0 5.0 0.00 0.00 0.00 78 1011.5
20260831064904 62 184 3.0 5.0 0.00 0.00 0.00 79 1011.4
20260831064438 61 155 3.0 6.0 0.00 0.00 0.00 79 1011.5
20260831064422 61 151 2.0 6.0 0.00 0.00 0.00 79 1011.4
20260831063406 61 179 2.0 5.0 0.00 0.00 0.00 80 1011.6
20260831062904 61 180 2.0 5.0 0.00 0.00 0.00 80 1011.6
20260831062404 61 180 1.0 5.0 0.00 0.00 0.00 80 1011.5
20260831061903 60 180 2.0 3.0 0.00 0.00 0.00 81 1011.5
20260831061404 60 180 1.0 3.0 0.00 0.00 0.00 82 1011.5
20260831060902 60 180 1.0 5.0 0.00 0.00 0.00 82 1011.3
20260831060404 60 180 2.0 5.0 0.00 0.00 0.00 83 1011.4
20260831055904 60 256 2.0 4.0 0.00 0.00 0.00 84 1011.4
20260831055405 59 256 2.0 4.0 0.00 0.00 0.00 85 1011.4
20260831054903 59 256 3.0 4.0 0.00 0.00 0.00 85 1011.5
20260831054403 59 256 1.0 3.0 0.00 0.00 0.00 85 1011.4
20260831053904 58 259 2.0 3.0 0.00 0.00 0.00 85 1011.5
20260831053403 58 265 2.0 3.0 0.00 0.00 0.00 86 1011.5
20260831052902 58 268 2.0 3.0 0.00 0.00 0.00 87 1011.7
20260831052644 58 268 1.0 3.0 0.00 0.00 0.00 87 1011.5
20260831051904 58 269 1.0 3.0 0.00 0.00 0.00 87 1011.6
20260831051403 58 269 2.0 3.0 0.00 0.00 0.00 87 1011.7
20260831050902 57 269 2.0 3.0 0.00 0.00 0.00 87 1011.7
20260831050405 57 269 1.0 2.0 0.00 0.00 0.00 87 1011.7
20260831045903 57 269 0.0 1.0 0.00 0.00 0.00 87 1011.6
20260831045405 56 269 0.0 0.0 0.00 0.00 0.00 87 1011.7
20260831044903 56 269 0.0 0.0 0.00 0.00 0.00 87 1011.7
20260831044404 56 269 0.0 0.0 0.00 0.00 0.00 87 1011.6
20260831044142 56 269 0.0 0.0 0.00 0.00 0.00 87 1011.7
20260831043402 55 269 0.0 0.0 0.00 0.00 0.00 87 1011.7
20260831042903 55 269 0.0 0.0 0.00 0.00 0.00 86 1011.7
20260831042403 55 269 0.0 0.0 0.00 0.00 0.00 86 1011.6
20260831041902 55 269 0.0 0.0 0.00 0.00 0.00 86 1011.7
20260831041841 56 269 0.0 0.0 0.00 0.00 0.00 86 1012.0
20260831041829 55 269 0.0 0.0 0.00 0.00 0.00 86 1011.9
20260831041825 55 269 0.0 0.0 0.00 0.00 0.00 86 1011.8
20260831041730 55 269 0.0 0.0 0.00 0.00 0.00 86 1011.6
20260831040725 55 269 0.0 0.0 0.00 0.00 0.00 86 1011.9
20260831034903 56 269 0.0 0.0 0.00 0.00 0.00 86 1011.9
20260831034402 56 269 0.0 0.0 0.00 0.00 0.00 86 1011.9
20260831033904 56 269 0.0 0.0 0.00 0.00 0.00 86 1011.9
20260831033640 56 269 0.0 0.0 0.00 0.00 0.00 86 1012.0
20260831032903 56 269 0.0 0.0 0.00 0.00 0.00 86 1012.0
20260831032646 56 269 0.0 0.0 0.00 0.00 0.00 85 1012.1
20260831031903 56 269 0.0 0.0 0.00 0.00 0.00 85 1012.2
20260831031652 56 269 0.0 0.0 0.00 0.00 0.00 85 1012.3
20260831030902 56 269 0.0 0.0 0.00 0.00 0.00 86 1012.2
20260831030403 57 269 0.0 0.0 0.00 0.00 0.00 86 1012.3
20260831025904 57 269 0.0 0.0 0.00 0.00 0.00 86 1012.3
20260831025446 57 269 0.0 0.0 0.00 0.00 0.00 85 1012.4
20260831025432 57 269 0.0 0.0 0.00 0.00 0.00 85 1012.3
20260831024404 57 269 0.0 0.0 0.00 0.00 0.00 85 1012.3
20260831024146 57 269 0.0 0.0 0.00 0.00 0.00 85 1012.4
20260831023403 57 269 0.0 0.0 0.00 0.00 0.00 85 1012.5
20260831022904 57 269 0.0 0.0 0.00 0.00 0.00 85 1012.5
20260831022643 57 269 0.0 0.0 0.00 0.00 0.00 85 1012.6
20260831021904 57 269 0.0 0.0 0.00 0.00 0.00 85 1012.6
20260831021404 57 269 0.0 0.0 0.00 0.00 0.00 84 1012.6
20260831020902 57 269 0.0 0.0 0.00 0.00 0.00 84 1012.6
20260831020402 57 269 0.0 0.0 0.00 0.00 0.00 84 1012.7
20260831015904 57 269 0.0 0.0 0.00 0.00 0.00 84 1012.7
20260831015403 58 269 0.0 0.0 0.00 0.00 0.00 84 1012.8
20260831014904 58 269 0.0 0.0 0.00 0.00 0.00 84 1012.8
20260831014645 58 269 0.0 0.0 0.00 0.00 0.00 84 1012.9
20260831013903 58 269 0.0 0.0 0.00 0.00 0.00 84 1012.9
20260831013403 58 269 0.0 0.0 0.00 0.00 0.00 84 1012.9
20260831013129 58 269 0.0 0.0 0.00 0.00 0.00 84 1012.8
20260831012348 58 269 0.0 0.0 0.00 0.00 0.00 84 1012.8
20260831011849 58 269 0.0 0.0 0.00 0.00 0.00 84 1012.9
20260831011349 58 269 0.0 0.0 0.00 0.00 0.00 84 1012.9
20260831010846 58 269 0.0 0.0 0.00 0.00 0.00 84 1012.8
20260831010347 58 269 0.0 0.0 0.00 0.00 0.00 83 1012.8
20260831005847 59 269 0.0 0.0 0.00 0.00 0.00 83 1012.9
20260831005636 59 269 0.0 0.0 0.00 0.00 0.00 83 1013.0
20260831004845 59 269 0.0 0.0 0.00 0.00 0.00 83 1013.0
20260831004633 59 269 0.0 0.0 0.00 0.00 0.00 83 1013.0
20260831003848 59 269 0.0 0.0 0.00 0.00 0.00 83 1013.0
20260831003628 59 269 0.0 0.0 0.00 0.00 0.00 83 1013.0
20260831002847 59 269 0.0 0.0 0.00 0.00 0.00 83 1013.0
20260831002347 59 269 0.0 0.0 0.00 0.00 0.00 83 1013.0
20260831001848 59 269 0.0 0.0 0.00 0.00 0.00 83 1013.0
20260831001348 60 269 0.0 0.0 0.00 0.00 0.00 82 1013.0
20260831000848 60 269 0.0 0.0 0.00 0.00 0.00 82 1013.0
20260831000347 60 269 0.0 0.0 0.00 0.00 0.00 82 1013.0
20260830235846 60 269 0.0 0.0 0.00 0.00 0.00 82 1013.2
20260830235347 60 269 0.0 0.0 0.00 0.00 0.00 82 1013.1
20260830234846 60 269 0.0 0.0 0.00 0.00 0.00 82 1013.2
20260830234347 60 269 0.0 0.0 0.00 0.00 0.00 82 1013.0
20260830233847 60 269 0.0 0.0 0.00 0.00 0.00 82 1013.0
20260830233349 60 269 0.0 0.0 0.00 0.00 0.00 82 1013.2
20260830232847 60 269 0.0 0.0 0.00 0.00 0.00 82 1013.1
20260830232346 60 269 0.0 0.0 0.00 0.00 0.00 82 1013.0
20260830231844 60 269 0.0 0.0 0.00 0.00 0.00 82 1013.2
20260830231624 60 269 0.0 0.0 0.00 0.00 0.00 82 1013.2
20260830230845 61 269 0.0 0.0 0.00 0.00 0.00 82 1013.2
20260830230345 61 269 0.0 0.0 0.00 0.00 0.00 82 1013.2
20260830225845 61 269 0.0 0.0 0.00 0.00 0.00 82 1013.3
20260830225347 61 269 0.0 0.0 0.00 0.00 0.00 82 1013.2
20260830224846 61 269 0.0 0.0 0.00 0.00 0.00 82 1013.1
20260830224346 61 269 0.0 0.0 0.00 0.00 0.00 82 1013.1
20260830223845 61 269 0.0 0.0 0.00 0.00 0.00 82 1013.2
20260830223347 61 269 0.0 0.0 0.00 0.00 0.00 81 1013.2
20260830222836 61 269 0.0 0.0 0.00 0.00 0.00 81 1013.2
20260830222334 61 269 0.0 2.0 0.00 0.00 0.00 81 1013.1
20260830221807 61 269 1.0 2.0 0.00 0.00 0.00 81 1013.1
20260830221303 61 269 1.0 2.0 0.00 0.00 0.00 81 1013.1
20260830220803 61 269 1.0 1.0 0.00 0.00 0.00 81 1013.2
20260830220252 61 269 0.0 0.0 0.00 0.00 0.00 81 1013.2
20260830215935 61 269 2.0 3.0 0.00 0.00 0.00 81 1013.2
20260830215207 61 269 2.0 4.0 0.00 0.00 0.00 81 1013.2
20260830214635 62 269 2.0 4.0 0.00 0.00 0.00 82 1013.2
20260830214136 62 269 2.0 3.0 0.00 0.00 0.00 81 1013.2
20260830213634 62 269 2.0 3.0 0.00 0.00 0.00 81 1013.1
20260830213134 62 269 1.0 2.0 0.00 0.00 0.00 81 1013.1
20260830212634 62 269 2.0 2.0 0.00 0.00 0.00 81 1013.1
20260830212135 62 269 2.0 2.0 0.00 0.00 0.00 81 1013.1
20260830211633 62 269 2.0 2.0 0.00 0.00 0.00 81 1013.0
20260830211135 62 269 1.0 2.0 0.00 0.00 0.00 81 1013.0
20260830210634 63 269 2.0 3.0 0.00 0.00 0.00 80 1012.9
20260830210342 63 269 2.0 3.0 0.00 0.00 0.00 80 1013.0
20260830205603 63 269 2.0 3.0 0.00 0.00 0.00 80 1013.0
20260830205108 63 269 1.0 2.0 0.00 0.00 0.00 79 1013.0
20260830204604 63 269 0.0 0.0 0.00 0.00 0.00 79 1013.0
20260830204107 64 269 0.0 0.0 0.00 0.00 0.00 79 1012.9
20260830203605 64 269 0.0 0.0 0.00 0.00 0.00 79 1012.8
20260830203140 64 269 0.0 0.0 0.00 0.00 0.00 78 1012.7
20260830203126 64 269 0.0 0.0 0.00 0.00 0.00 79 1012.8
20260830202104 64 269 0.0 0.0 0.00 0.00 0.00 78 1012.8
20260830201600 64 269 0.0 0.0 0.00 0.00 0.00 78 1012.8
20260830201342 65 269 0.0 0.0 0.00 0.00 0.00 78 1012.7
20260830200603 65 269 0.0 0.0 0.00 0.00 0.00 78 1012.7
20260830195601 65 269 0.0 0.0 0.00 0.00 0.00 78 1012.8
20260830195344 65 269 0.0 0.0 0.00 0.00 0.00 79 1012.7
20260830194628 66 269 0.0 0.0 0.00 0.00 0.00 79 1012.7
20260830194619 65 269 0.0 0.0 0.00 0.00 0.00 79 1012.7